[Iaude] MPEC W75: 2023 RK10 [a=1.10,e=0.04,i=2.0,H=26.29]
    mpec at marsden.cfa.harvard.edu 
    mpec at marsden.cfa.harvard.edu
       
    Tue Nov 21 09:24:57 EST 2023
    
    
  
M.P.E.C. 2023-W75                             Issued 2023 November 21, 14:23 UT
     The Minor Planet Electronic Circulars contain information on unusual
         minor planets, routine data on comets and natural satellites,
         and occasional editorial announcements.  They are published
    on behalf of Division F of the International Astronomical Union by the
          Minor Planet Center, Smithsonian Astrophysical Observatory,
                          Cambridge, MA 02138, U.S.A.
			  
             Prepared using the Tamkin Foundation Computer Network
                              MPC at CFA.HARVARD.EDU
            URL https://www.minorplanetcenter.net/    ISSN 1523-6714
                                   2023 RK10                                    
                           Revision to MPEC 2023-R233                           
Additional Observations:
     K23R10K  C2016 06 08.46327116 54 53.444-20 05 49.24         20.92GVEW075F51
     K23R10K  C2016 06 08.47302416 54 52.495-20 05 28.80         20.86GVEW075F51
     K23R10K  C2016 06 13.38854116 51 42.940-17 17 02.60         20.75GVEW075F51
     K23R10K  C2016 06 13.40942316 51 40.954-17 16 19.40         21.25GVEW075F51
     K23R10K  C2016 06 13.41991516 51 39.977-17 15 56.97         21.08GVEW075F51
     K23R10K  C2016 07 06.24888 16 49 26.81 -05 23 43.9                qEW075G96
     K23R10K  C2016 07 06.25593 16 49 26.74 -05 23 32.7          21.2 VqEW075G96
     K23R10K  C2016 07 06.26308 16 49 26.63 -05 23 23.3          21.1 VqEW075G96
     K23R10K  C2016 07 06.27017 16 49 26.50 -05 23 12.6          21.6 VqEW075G96
     K23R10K  C2016 07 06.36175316 49 31.255-05 20 40.47         21.38GVEW075F51
     K23R10K  C2016 07 06.37342816 49 31.027-05 20 23.97         21.54GVEW075F51
     K23R10K  C2016 07 06.38510116 49 30.789-05 20 07.30         21.47GVEW075F51
     K23R10K  C2016 07 28.34767417 17 53.877-00 12 49.06         22.16GVEW075F51
     K23R10K  C2016 07 28.37672017 17 55.884-00 12 39.09         22.48GVEW075F51
     K23R10K  C2016 07 28.39117117 17 56.958-00 12 34.03         22.74GVEW075F51
Observer details:
F51 Pan-STARRS 1, Haleakala.  Observers J. Herman, T. Lowe, P. Minguez, A.
    Schultz, I. Smith.  Measurers K. Chambers, T. de Boer, J. Fairlamb, H.
    Gao, M. Huber, C.-C. Lin, E. Magnier, Y. Ramanjooloo, R. Wainscoat, R.
    Weryk.  1.8-m Ritchey-Chretien + CCD.
G96 Mt. Lemmon Survey.  Observer D. C. Fuls.  Measurers E. J. Christensen, D.
    C. Fuls, A. R. Gibbs, A. D. Grauer, J. A. Johnson, R. A. Kowalski, S. M.
    Larson, G. J. Leonard, R. G. Matheny, R. L. Seaman, F. C. Shelly.  1.5-m
    reflector + 10K CCD.
Orbital elements:
2023 RK10                                                Earth MOID = 0.0531 AU
Epoch 2023 Sept. 13.0 TT = JDT 2460200.5                Veres                   
M  33.18923              (2000.0)            P               Q                  
n   0.84855141     Peri.   62.75290     +0.71051726     +0.70291333             
a   1.1049703      Node   252.56504     -0.65717358     +0.64615490             
e   0.0393352      Incl.    1.97223     -0.25157129     +0.29731581             
P   1.16           H   26.29          G   0.15           U   0                  
Residuals in seconds of arc
160608 F51  0.1+  0.1+    230913 F52  0.0   0.0     230918 F52  0.1-  0.1-
160608 F51  0.0   0.2+    230913 F52  0.0   0.1+    230918 F52  0.1-  0.1-
160613 F51  0.0   0.1-    230913 F52  0.1-  0.0     230918 F52  0.1-  0.0
160613 F51  0.2-  0.3-    230913 F52  0.0   0.0     231005 F52  0.3-  0.1+
160613 F51  0.0   0.1+    230914 T14  0.0   0.0     231005 F52  0.1-  0.1-
160706 G96  0.3-  0.5-    230914 T14  0.0   0.0     231005 F52  0.1+  0.0
160706 G96  0.3+  0.6+    230914 T14  0.0   0.0     231005 F52  0.1-  0.3+
160706 G96  0.2+  0.2-    230914 T14  0.0   0.0     231009 F51  0.1+  0.3-
160706 G96  0.2-  0.4+    230914 033  0.1-  0.3-    231009 F51  0.1-  0.3-
160706 F51  0.1-  0.0     230914 033  0.1-  0.0     231009 F51  0.1-  0.1+
160706 F51  0.1+  0.0     230914 033  0.3+  0.2+    231019 V00  0.1-  0.0
160706 F51  0.1+  0.1+    230915 H21  0.3-  0.3-    231019 V00  0.5+  0.0
160728 F51  0.1-  0.2-    230915 H21  0.1+  0.1-    231019 V00  0.1-  0.1-
160728 F51  0.1-  0.1-    230915 H21  0.1-  0.4-    231019 V00  0.2+  0.1+
160728 F51  0.4+  0.1+    230918 F52  0.2-  0.1+
Ephemeris:
2023 RK10                a,e,i = 1.10, 0.04, 2                   q = 1.0615
Date    TT    R. A. (2000) Decl.     Delta      r    Elong.  Phase     V
2023 10 22    23 49 34.8 +15 21 40   0.1048  1.0889   151.8    25.6    22.7
...
2023 11 06    00 05 08.1 +10 30 04   0.1324  1.0982   141.5    34.2    23.5
...
2023 11 14    00 17 06.6 +08 58 06   0.1509  1.1033   136.1    38.5    23.9
...
2023 11 20    00 27 29.3 +08 16 38   0.1663  1.1071   132.3    41.3    24.2
2023 11 21    00 29 19.2 +08 11 50   0.1690  1.1078   131.7    41.7    24.3
2023 11 22    00 31 10.8 +08 07 36   0.1718  1.1084   131.1    42.2    24.3
...
2023 11 28    00 42 49.5 +07 53 07   0.1887  1.1122   127.7    44.6    24.6
...
2023 12 06    00 59 27.1 +07 58 41   0.2129  1.1171   123.5    47.4    25.0
...
2023 12 21    01 33 31.2 +09 07 45   0.2627  1.1258   116.5    51.5    25.5
A. U. Tomatic                (C) Copyright 2023 MPC           M.P.E.C. 2023-W75
    
    
More information about the Iaude
mailing list